Погода в Яре

Россия / Свердловская область     56°58′18″N   64°16′02″E
темп.,
°C
ветер,
м/с
пор.,
м/с
влажн.,
%
обл.,
%
осадки,
мм/ч
давл.,
гПа
погр.,
м
16 июня, ср
ср1623:00+19зюз27824 0.1 1013145
02:00+16з27925 0.0 1013122
05:00+16зсз24881 0.0 101492
08:00+23зсз245431 0.0 1015417
11:00+27зсз353968 0.0 10141671
14:00+30зсз453236 0.0 10132905
17:00+27зсз354653 0.0 1012630
20:00+26юз25555 0.0 1011131
17 июня, чт
чт1723:00+18зюз2489100 0.6 101172
02:00+16ююз399255 0.0 1009175
05:00+15юз3119357 0.0 1008267
08:00+22юз495798 0.0 1006470
11:00+27зюз694298 0.0 10051586
14:00+28зюз584199 0.0 10032011
17:00+17зюз0196100 24.7 100382
20:00+17ссз51195100 12.3 1004608
18 июня, пт
пт1823:00+13с41288100 12.3 1008642
02:00+12с411816 0.0 1010751
05:00+10с412784 0.0 1012750
08:00+12с59560 0.0 10141031
11:00+15с69385 0.0 10151764
14:00+18с68315 0.0 10152247
17:00+18с58315 0.0 10162457
20:00+15сз265360 0.0 1017154
19 июня, сб
сб1923:00+10зсз236312 0.0 101844
02:00+9зсз347869 0.1 101970
05:00+8зсз27815 0.1 1019146
08:00+14зсз3557100 0.0 1019428
11:00+19зсз4641100 0.0 10181813
14:00+19зсз6643100 0.0 10162270
17:00+12зюз2784100 0.1 1015336
20:00+14юз3980100 0.1 1012565
20 июня, вс
вс2023:00+14з3993100 0.1 1010391
02:00+13юз399999 0.1 1007258
05:00+15зсз51297100 1.1 1005765
08:00+13ссз7138281 0.3 1008910
11:00+16ссз8133915 0.3 10091520
14:00+19ссз814287 0.0 10092254
17:00+19ссз714331 0.0 10102573
20:00+16ссз715421 0.0 10112300